Theta_e
325 331 336 339 343 344 344 347 347 346 346 346 347 347 348 348 348 349 349 348 347 347 349 349 349 350 348 347 347 346 346 346 346 346 347 352 355 354 354 355 354 351 354
327 328 334 336 338 340 341 342 343 344 345 345 345 344 344 345 346 346 347 348 348 347 348 348 348 348 348 348 349 349 349 350 350 349 348 347 353 355 353 355 354 351 355
324 327 331 333 334 335 335 338 340 341 342 342 343 343 343 342 343 343 342 343 345 346 346 347 347 348 347 347 347 348 348 350 350 349 347 338 345 355 353 355 354 355 355
321 325 326 330 328 329 331 333 333 334 335 337 339 339 339 338 339 339 341 340 341 342 343 345 346 346 346 346 346 347 347 348 349 348 345 336 340 354 351 353 355 355 356
320 322 323 326 325 325 326 327 326 327 330 329 330 333 333 330 330 332 333 333 334 335 337 339 340 340 340 342 344 345 345 347 347 342 342 345 339 345 352 352 353 353 352
318 319 320 322 322 322 321 321 321 321 322 323 326 324 323 322 323 324 325 326 326 328 330 333 334 333 333 336 340 342 344 345 345 338 339 342 345 347 347 352 353 352 350
314 316 316 317 318 318 318 318 318 317 317 317 318 317 317 317 318 318 319 319 320 321 322 326 328 327 327 329 332 334 335 337 341 338 338 340 342 348 346 346 351 352 353
307 311 312 312 314 314 314 313 314 314 313 313 312 313 313 312 313 313 314 315 316 316 316 319 318 318 320 322 323 323 323 324 333 336 338 339 341 345 345 346 347 350 352
306 306 307 308 309 310 309 309 310 310 310 310 309 308 308 308 308 309 309 312 313 314 314 315 315 315 315 315 315 316 316 317 321 333 335 337 338 342 343 344 345 347 350
304 304 304 305 305 306 306 306 307 307 307 306 305 304 303 305 305 305 305 307 310 310 311 311 312 312 312 312 311 312 314 315 320 331 337 337 339 342 342 342 344 345 346
302 302 303 304 304 304 304 302 304 304 303 301 303 302 306 305 304 304 303 304 306 306 308 309 309 309 309 312 314 314 313 311 317 320 325 332 338 340 341 341 344 345 346
300 301 302 302 303 303 300 303 303 302 303 303 304 304 303 304 302 302 304 304 304 303 305 306 307 307 309 305 307 310 306 308 308 310 316 327 332 334 339 339 341 343 345
302 301 300 301 302 302 301 303 303 303 303 303 303 303 303 303 302 302 302 302 303 304 301 302 302 302 303 304 305 305 306 307 307 307 309 319 319 323 330 336 338 340 343
302 301 300 301 301 302 302 302 302 302 302 302 301 300 301 301 300 300 300 300 302 301 300 300 301 302 302 303 304 304 305 306 306 307 308 312 315 315 320 326 333 335 339
301 300 299 300 300 301 301 301 301 301 301 300 300 299 299 298 298 298 298 298 298 298 297 297 299 299 300 301 301 303 303 304 305 305 307 309 313 312 315 318 321 331 336
301 299 299 299 300 300 300 300 300 300 299 299 299 297 296 297 296 295 296 296 296 296 296 296 296 297 298 299 299 300 301 301 303 304 305 306 311 313 312 315 318 321 327
301 300 299 299 299 298 299 299 299 299 298 297 297 296 295 294 294 294 294 294 295 295 294 295 295 296 296 297 297 298 299 300 300 301 303 305 306 310 313 313 315 317 320
300 299 299 297 298 298 298 298 297 297 296 296 295 295 294 293 293 293 292 292 293 293 293 293 293 293 294 294 295 296 297 299 300 300 301 303 305 305 308 312 313 313 316
300 298 297 297 296 297 297 296 296 296 295 295 294 294 293 292 291 291 291 292 292 292 292 292 292 292 292 293 294 294 295 295 297 298 300 301 303 304 304 308 311 312 312
300 298 297 296 296 296 296 295 294 294 294 293 293 292 291 291 290 290 290 291 291 290 290 291 290 292 291 292 291 291 293 296 297 298 299 300 302 303 304 306 307 308 311
299 297 296 295 295 295 294 292 292 291 293 292 292 291 291 290 290 289 289 289 290 289 290 290 290 289 291 292 290 291 291 293 295 299 301 302 303 304 305 306 306 307 308
296 296 296 295 294 294 294 294 293 293 292 292 292 291 291 290 289 288 288 288 288 288 288 289 289 288 290 291 287 287 287 289 296 294 294 296 300 300 301 303 305 306 307
295 295 295 295 294 294 293 292 290 290 289 289 290 290 290 289 289 288 287 287 287 288 287 288 288 287 285 288 288 286 283 283 286 292 293 294 297 297 297 297 300 301 302
295 296 295 294 294 293 292 290 289 288 288 290 291 290 289 289 288 287 287 287 286 287 287 287 287 286 286 284 287 288 289 288 283 282 290 290 293 294 295 295 297 298 299
295 295 295 294 293 292 291 290 290 290 290 290 288 287 288 288 288 287 286 286 285 286 286 286 285 285 285 284 284 285 286 286 287 284 281 285 289 292 293 293 294 295 296
295 294 294 292 292 291 290 290 289 289 288 287 286 286 286 287 286 286 285 285 284 284 284 284 284 284 284 284 284 284 284 283 282 283 283 283 283 286 289 291 291 293 296
Wind_Speed
5 6 10 9 9 10 10 12 9 7 6 6 7 9 10 10 8 7 6 5 6 7 8 8 8 8 8 8 9 9 9 8 9 11 12 12 10 9 9 8 7 9 9
6 6 8 8 10 12 12 11 11 11 11 11 11 11 11 11 12 11 12 11 8 8 9 9 9 9 10 9 9 9 9 8 6 7 9 11 11 11 7 5 6 9 8
7 4 10 10 11 10 10 10 12 13 14 13 12 13 13 11 12 12 12 12 12 11 11 10 11 11 10 9 9 10 11 11 8 8 10 9 8 4 3 3 7 8 10
6 6 8 8 10 11 11 12 12 12 11 10 12 14 13 14 14 15 14 15 14 13 13 13 13 14 13 11 10 9 9 10 9 9 10 8 9 2 1 5 8 9 10
7 6 8 8 9 10 11 11 11 12 12 12 11 11 14 13 13 13 13 13 13 13 13 13 14 14 15 14 12 10 10 8 8 10 10 7 6 9 7 7 9 10 8
7 6 8 8 8 9 10 11 11 12 12 12 12 13 12 12 12 12 12 12 12 13 13 12 12 12 12 12 13 13 14 12 8 9 9 7 9 6 9 11 9 9 10
8 7 8 7 7 8 9 9 10 10 11 11 10 11 11 12 12 12 13 13 14 14 15 13 13 14 14 15 14 13 13 14 10 10 9 8 6 8 10 13 13 11 9
8 6 6 7 8 8 8 8 8 9 9 10 10 10 11 11 12 12 13 13 13 13 13 12 13 13 13 14 13 14 14 14 12 12 11 8 8 7 12 12 13 14 12
7 7 6 7 8 8 8 8 8 9 8 9 10 10 10 10 11 12 12 14 14 15 15 13 14 14 14 14 13 13 14 15 11 10 12 8 8 4 11 13 15 14 15
7 6 6 6 6 6 7 8 9 9 9 9 8 6 2 4 6 9 12 13 13 15 13 14 14 16 16 15 12 11 13 17 12 10 7 7 9 8 14 16 16 16 15
8 8 8 8 7 6 6 7 9 8 7 4 4 2 1 5 7 7 9 12 12 14 12 14 14 16 15 13 9 7 12 6 8 7 7 12 11 12 14 16 17 17 16
14 12 10 9 7 6 5 6 5 4 3 3 3 4 4 5 5 6 5 7 10 11 12 14 13 13 10 8 7 9 6 8 7 8 7 13 16 17 16 18 19 19 18
15 12 12 11 10 9 6 5 3 3 3 2 4 4 4 4 5 5 4 5 6 8 7 9 9 7 9 7 8 8 9 8 6 6 9 12 16 19 21 22 22 21 19
17 15 13 12 10 9 6 5 4 3 2 2 4 3 3 3 5 5 4 6 6 6 7 7 5 7 9 9 9 10 10 9 7 7 9 13 14 19 21 22 24 25 24
18 16 15 13 11 9 8 6 5 5 3 3 3 4 3 4 4 4 4 5 5 6 7 8 7 8 9 10 10 10 10 10 10 7 7 13 15 20 23 24 25 25 26
17 18 16 15 13 11 9 8 6 5 5 4 3 3 4 3 3 3 4 5 5 6 7 8 8 8 7 8 9 10 10 10 11 11 9 10 15 19 23 24 24 26 27
17 17 17 15 13 12 10 8 6 6 5 5 4 4 3 3 4 4 4 4 5 6 8 7 8 7 7 7 9 9 9 11 11 13 11 10 11 15 17 22 23 24 26
19 19 17 13 14 13 11 9 7 6 5 5 4 3 3 3 3 4 4 5 6 6 7 8 8 8 8 7 8 8 8 10 13 13 12 11 9 9 11 16 20 22 24
20 19 17 15 15 13 10 8 7 7 5 4 4 3 3 3 4 4 4 5 7 6 7 7 7 8 8 8 9 9 9 11 13 12 13 13 13 11 9 13 14 14 20
18 18 18 14 15 14 9 8 6 6 5 4 4 3 3 1 2 3 4 6 6 6 6 7 9 8 9 9 11 11 11 11 11 11 12 11 10 11 11 11 8 8 13
17 18 19 17 16 11 9 8 6 7 6 6 5 4 4 1 2 3 4 6 6 6 8 9 8 10 8 8 9 8 9 13 13 9 8 8 8 10 9 9 8 7 8
18 18 18 18 17 13 8 7 4 7 6 5 5 5 4 2 3 3 5 6 6 6 9 9 8 7 7 5 7 10 8 8 6 11 11 11 10 9 12 10 11 11 10
20 20 18 17 16 14 12 8 5 4 3 5 6 5 5 4 3 5 6 6 6 7 7 8 8 9 7 6 8 5 7 5 13 5 10 11 10 8 11 14 14 14 16
19 17 18 17 16 15 15 11 13 8 7 7 5 4 3 3 5 5 5 6 7 7 8 8 6 7 8 8 6 6 8 10 6 14 4 11 13 13 13 12 14 13 16
18 18 17 17 17 15 15 13 10 9 5 5 4 4 4 5 6 5 6 6 7 7 8 9 9 8 7 8 7 7 8 9 10 9 19 11 11 9 10 12 15 14 18
16 17 17 19 17 17 16 15 14 12 9 7 7 5 5 4 3 5 5 6 7 8 9 8 9 10 9 9 9 9 9 9 8 9 13 19 15 13 13 13 13 15 13
Wind_Direction
83 53 16 14 36 47 46 53 67 67 69 63 53 50 42 39 30 20 7 354 3 357 353 358 354 348 348 352 345 344 340 339 341 335 335 331 312 293 290 296 276 265 237
93 56 41 35 41 36 37 37 44 52 58 62 60 56 53 50 50 46 41 36 23 1 352 350 349 351 5 350 337 328 330 330 325 326 329 310 271 252 258 295 276 275 314
89 66 74 46 54 58 46 44 42 42 43 44 49 56 51 46 43 37 32 27 23 19 8 357 349 349 354 353 348 347 347 333 319 327 311 279 287 249 204 285 279 266 274
88 75 62 51 64 65 61 60 55 53 53 47 44 46 45 46 39 37 36 33 25 22 15 10 7 5 357 351 344 339 336 335 332 325 304 317 312 2 263 291 291 287 272
105 90 70 62 69 73 76 75 71 68 68 66 63 62 52 48 48 47 44 37 32 25 18 9 8 8 3 355 346 336 328 329 330 304 297 304 316 311 343 305 294 295 279
126 114 84 74 79 78 81 79 77 75 76 73 70 70 61 55 50 44 40 35 29 23 15 13 7 2 359 356 358 348 336 320 314 297 300 306 312 302 313 307 294 289 295
141 120 96 78 83 83 80 79 81 78 74 73 69 68 62 54 48 37 33 27 21 16 10 10 10 2 359 360 356 349 345 342 305 297 292 283 278 317 316 305 299 293 282
137 131 120 89 83 81 82 82 85 86 82 76 70 62 59 53 47 41 32 25 20 13 6 5 360 353 349 348 346 344 341 339 312 291 288 286 287 285 289 295 296 297 284
145 150 153 139 107 88 82 82 87 85 77 68 58 54 53 47 43 35 29 21 17 11 4 358 352 345 340 338 334 332 331 321 302 287 285 283 267 270 284 289 295 296 297
169 168 161 160 164 144 119 90 89 88 83 75 65 60 32 95 41 48 25 17 13 7 358 357 349 345 339 331 323 324 322 305 276 290 299 275 259 268 281 285 287 292 292
185 186 180 179 177 157 140 118 113 102 96 106 122 37 226 38 26 17 38 11 9 3 354 355 348 341 329 313 311 308 294 296 321 305 297 301 354 311 285 284 285 285 286
194 192 189 185 179 169 160 154 132 134 94 73 45 31 27 31 27 4 27 8 5 9 355 354 349 334 342 339 327 326 330 329 309 294 287 308 316 300 291 284 281 284 283
199 192 191 189 181 178 165 168 168 157 154 116 60 33 36 33 20 20 11 6 358 8 357 352 347 349 336 328 326 322 323 314 310 304 295 309 312 303 294 284 280 279 279
200 193 193 190 186 180 170 187 170 163 159 129 77 38 42 43 29 18 13 360 355 358 346 340 334 328 326 324 320 313 312 312 308 308 299 295 295 290 287 286 284 275 275
203 196 194 189 187 177 187 176 172 154 168 134 126 73 42 57 35 13 5 353 348 349 342 335 331 331 326 324 319 311 308 303 296 292 291 293 289 285 282 280 277 279 274
198 200 193 191 188 179 185 180 170 164 153 155 122 94 73 52 35 10 2 350 341 347 337 325 323 319 317 313 309 311 307 303 298 291 285 287 284 279 277 276 276 274 274
200 195 196 190 186 181 179 175 171 164 166 151 134 130 101 58 33 4 348 333 342 335 317 316 314 315 317 313 309 310 306 303 298 295 289 282 283 278 270 275 275 274 272
197 195 191 188 183 181 178 175 171 165 163 152 151 163 129 72 27 352 345 340 337 322 323 322 326 324 317 316 310 306 298 289 285 284 278 275 273 281 286 288 288 284 282
197 193 188 186 185 180 173 171 168 164 172 156 171 182 122 53 19 349 333 316 323 319 318 316 318 316 307 311 301 301 296 291 284 278 280 280 281 279 276 276 271 270 276
194 193 189 185 185 179 168 172 170 166 172 167 194 179 139 78 3 331 324 322 317 308 305 303 302 301 301 300 310 305 289 280 279 277 275 278 275 274 273 271 276 274 256
192 192 194 188 186 177 179 178 181 186 182 185 191 170 180 139 341 318 309 301 297 290 290 292 296 304 302 311 305 306 290 283 267 260 251 260 287 278 276 278 281 273 270
191 194 193 193 188 187 183 183 189 182 189 194 176 179 172 188 237 265 280 283 283 293 291 289 296 300 302 306 317 297 320 313 34 342 304 280 283 315 299 299 296 297 297
199 195 196 192 189 187 184 168 161 149 194 191 197 189 185 202 229 249 258 276 296 289 284 292 291 299 296 306 306 298 315 308 330 262 320 291 287 321 314 303 298 297 289
199 194 195 194 192 187 180 180 189 197 195 196 173 161 194 232 248 253 263 273 277 281 277 281 289 294 297 296 300 264 264 277 305 313 280 309 294 281 308 298 289 306 292
195 193 194 192 193 184 185 188 189 199 195 174 177 205 233 241 240 249 258 272 282 283 281 285 287 283 283 280 275 282 277 270 263 268 293 288 287 280 293 301 291 295 302
188 192 194 190 191 187 190 195 195 192 185 184 195 207 218 227 245 253 260 264 276 277 281 293 292 286 280 277 277 271 265 264 273 281 283 288 283 286 285 283 291 281 274